SCP
-0 -0 -0 0 0 -0 -0 -0 -0 -0 -0 -0 -0 -0 -0 -0 -0 -0 -0 -0 0 0 0 0 0 0 0 0 0 -0 -0 -0
-0 -0 -0 0 0 0 -0 -0 -0 -0 -0 -0 -0 -0 -0 -0 -0 -0 -0 -0 0 0 0 0 0 0 0 0 0 -0 -0 -0
-0 -0 0 0 0 0 -0 -0 -0 -0 -0 -0 -0 -0 -0 -0 -0 -0 0 0 0 0 0 0 0 0 0 0 0 0 0 -0
0 1 0 0 0 0 0 -0 -0 -0 -0 -0 -0 -0 0 0 -0 -0 0 0 0 0 0 0 0 0 0 0 0 0 0 0
1 1 0 0 0 0 0 0 0 -0 -0 0 0 0 0 0 0 0 0 0 0 0 0 0 0 -0 -0 -0 -0 0 0 0
1 1 1 0 0 0 0 0 0 0 0 0 0 0 0 0 0 0 0 0 0 0 0 0 0 0 0 -0 -0 -0 0 0
1 1 1 0 0 0 1 0 0 0 0 0 0 0 0 0 0 0 0 0 0 0 0 0 0 0 0 0 0 0 0 0
0 0 0 1 0 0 1 0 0 0 0 0 0 0 0 0 0 0 0 0 0 0 0 0 0 0 0 0 0 0 0 0
1 1 0 0 0 1 1 0 0 0 0 0 0 0 0 0 0 0 0 0 0 0 0 0 0 0 0 0 0 0 0 0
0 0 0 0 0 0 0 0 0 0 0 0 0 0 0 0 0 0 0 0 0 0 0 0 0 0 0 0 0 0 0 0
0 0 0 0 0 0 0 0 0 0 0 0 0 0 0 0 0 0 0 0 0 0 0 0 0 0 0 0 0 0 0 0
0 0 0 0 0 0 0 0 0 0 0 0 0 0 0 0 0 0 0 0 0 0 0 0 0 0 0 0 0 0 0 0
0 0 0 0 0 0 0 0 0 0 0 0 0 0 0 0 0 0 0 0 0 0 0 0 0 0 0 0 0 0 0 0
0 0 0 0 0 0 0 0 0 0 0 0 0 0 0 0 0 0 0 0 0 0 0 0 0 0 0 0 0 0 0 0
0 0 0 0 0 0 0 0 0 0 0 0 0 0 0 0 0 0 0 0 0 0 0 0 0 0 0 0 0 0 0 0
0 0 0 0 0 0 0 0 0 1 0 0 0 0 0 0 0 0 0 0 0 0 0 0 0 0 0 0 0 0 0 0
0 0 -0 -0 -0 0 0 0 0 0 1 1 0 0 1 0 0 0 0 0 0 0 0 0 0 0 0 0 0 0 0 0
0 0 0 0 0 0 0 0 0 1 2 2 2 2 1 1 1 0 0 0 1 1 1 0 0 0 0 0 0 0 0 0
-0 0 0 0 0 0 0 0 0 0 0 1 1 1 0 1 1 1 1 1 1 1 1 1 0 0 0 0 0 0 0 0
Wind_Speed_500mb
65 64 61 56 50 45 39 33 30 29 31 32 35 37 37 34 29 24 22 19 18 19 20 20 21 18 16 15 14 12 10 9
64 63 60 54 48 44 40 35 31 29 29 32 34 37 36 35 30 24 20 18 17 17 17 18 19 19 18 18 16 10 5 5
61 61 59 55 48 41 37 33 29 26 27 30 32 34 35 34 28 22 18 17 16 16 15 14 16 18 18 18 19 15 11 5
62 62 58 53 48 43 38 34 30 27 24 24 28 31 31 30 27 22 18 16 15 14 13 12 13 15 16 16 17 18 18 15
60 60 58 54 49 44 41 37 33 27 23 20 21 25 27 27 24 21 17 15 13 12 11 11 10 11 11 13 14 16 16 14
60 59 57 55 51 46 42 39 36 33 29 25 21 23 27 29 27 25 21 17 13 11 10 10 9 9 10 12 13 14 13 12
58 59 56 53 49 48 44 41 40 37 32 28 26 25 26 29 29 27 24 19 15 13 11 9 7 9 10 12 13 12 13 15
49 49 52 50 47 45 43 43 42 39 35 31 31 30 28 31 32 31 27 23 19 16 13 10 12 12 13 15 15 13 15 13
50 48 49 47 44 43 43 42 41 41 39 38 36 34 33 32 32 32 30 26 22 20 18 17 19 18 17 17 14 12 10 10
49 48 49 47 45 41 41 39 39 39 41 38 39 36 33 32 32 32 31 30 27 25 19 17 16 14 12 14 18 16 13 11
38 43 45 48 44 42 40 36 36 40 40 39 37 34 33 32 32 33 32 32 29 27 26 23 18 18 17 21 21 25 22 16
20 30 40 40 41 41 39 38 38 39 39 37 35 33 32 32 31 32 33 33 28 26 26 29 27 26 25 26 30 22 21 20
35 22 16 34 32 38 43 47 44 41 42 38 36 33 31 33 32 31 34 32 26 27 28 30 33 35 33 33 32 35 25 28
47 45 46 38 39 39 53 55 49 42 51 50 46 41 37 39 37 34 32 31 28 30 33 32 34 38 38 39 43 41 42 38
38 44 47 51 53 67 65 61 62 57 67 61 45 40 33 34 34 36 33 31 29 36 37 30 33 35 41 43 46 47 43 32
20 34 57 59 55 64 61 56 66 74 70 59 45 32 37 38 36 36 36 37 32 39 44 35 37 44 48 49 54 50 40 41
15 22 46 62 63 73 85 83 72 70 66 46 41 42 38 33 37 42 35 37 36 42 49 43 42 47 49 52 51 50 38 38
42 37 43 52 54 56 63 66 71 57 50 45 42 34 25 37 37 39 43 34 40 39 49 49 47 51 52 53 51 48 14 15
56 48 53 56 56 50 54 45 53 51 49 48 40 40 37 26 26 21 26 30 32 41 51 49 47 53 54 58 48 53 44 40
Wind_Direction_500mb
176 176 176 176 177 178 178 175 166 159 163 163 162 161 160 161 163 160 151 147 145 142 141 150 157 159 154 158 151 130 91 61
179 179 178 179 182 183 182 181 174 163 163 167 168 166 167 167 167 163 157 154 148 144 143 152 161 170 173 175 178 169 123 76
182 183 181 180 182 187 188 186 181 175 168 172 175 174 174 173 169 166 162 155 151 150 148 153 162 171 177 182 189 197 204 243
184 184 184 183 183 185 191 194 193 190 182 178 183 183 182 179 174 174 169 158 155 157 157 160 165 171 179 184 195 209 233 256
183 186 188 188 189 190 192 192 195 199 198 193 192 194 196 191 188 188 181 168 162 164 171 179 183 179 179 188 200 215 227 244
183 188 191 192 192 194 197 196 195 198 201 204 206 205 207 205 199 199 193 187 178 180 185 196 200 196 200 207 210 220 229 233
182 189 192 196 197 197 200 201 200 203 206 210 216 219 218 218 213 208 206 203 198 200 205 213 220 221 223 226 228 234 232 235
194 197 196 200 206 208 208 209 208 210 214 219 224 225 225 224 222 219 216 215 215 222 226 229 235 237 236 242 242 244 245 230
191 198 202 203 206 209 214 215 214 217 220 225 229 230 228 229 227 224 225 228 228 236 237 240 239 244 248 248 240 238 237 234
186 197 201 204 208 211 215 216 218 224 226 229 231 232 232 233 232 232 229 232 237 237 236 228 233 232 250 258 253 246 221 226
187 192 205 208 212 213 214 218 222 228 229 231 234 237 236 235 236 235 233 236 239 240 235 240 255 255 253 260 267 267 244 250
171 203 209 207 218 224 226 224 228 234 235 233 237 237 239 242 242 241 239 238 239 243 242 242 254 264 271 273 272 270 260 274
224 191 162 189 211 231 234 232 229 236 238 234 229 233 238 240 239 241 246 242 242 242 247 255 259 263 272 276 276 261 268 271
221 217 212 215 217 243 244 235 234 240 237 229 228 223 228 238 240 239 241 243 237 245 249 257 267 273 273 274 277 276 273 274
230 227 211 214 223 213 219 229 231 235 233 230 229 222 220 224 234 239 241 241 243 247 251 263 276 286 283 279 281 285 280 257
238 240 222 224 230 220 217 235 233 229 231 239 239 234 228 236 244 255 267 263 262 269 264 262 274 280 283 285 279 284 275 255
286 250 229 225 232 234 243 251 238 242 238 242 236 243 240 255 267 266 269 278 274 281 277 265 273 279 285 285 277 274 273 260
262 272 248 238 240 242 243 245 238 233 226 234 249 252 270 279 275 276 269 273 279 285 293 283 278 278 284 287 277 261 244 257
250 253 255 245 240 238 242 235 221 233 235 241 255 276 288 294 285 300 289 282 277 280 273 275 273 277 282 283 272 256 249 271
Wind_Speed_850mb
65 64 61 56 50 45 39 33 30 29 31 32 35 37 37 34 29 24 22 19 18 19 20 20 21 18 16 15 14 12 10 9
64 63 60 54 48 44 40 35 31 29 29 32 34 37 36 35 30 24 20 18 17 17 17 18 19 19 18 18 16 10 5 5
61 61 59 55 48 41 37 33 29 26 27 30 32 34 35 34 28 22 18 17 16 16 15 14 16 18 18 18 19 15 11 5
62 62 58 53 48 43 38 34 30 27 24 24 28 31 31 30 27 22 18 16 15 14 13 12 13 15 16 16 17 18 18 15
60 60 58 54 49 44 41 37 33 27 23 20 21 25 27 27 24 21 17 15 13 12 11 11 10 11 11 13 14 16 16 14
60 59 57 55 51 46 42 39 36 33 29 25 21 23 27 29 27 25 21 17 13 11 10 10 9 9 10 12 13 14 13 12
58 59 56 53 49 48 44 41 40 37 32 28 26 25 26 29 29 27 24 19 15 13 11 9 7 9 10 12 13 12 13 15
49 49 52 50 47 45 43 43 42 39 35 31 31 30 28 31 32 31 27 23 19 16 13 10 12 12 13 15 15 13 15 13
50 48 49 47 44 43 43 42 41 41 39 38 36 34 33 32 32 32 30 26 22 20 18 17 19 18 17 17 14 12 10 10
49 48 49 47 45 41 41 39 39 39 41 38 39 36 33 32 32 32 31 30 27 25 19 17 16 14 12 14 18 16 13 11
38 43 45 48 44 42 40 36 36 40 40 39 37 34 33 32 32 33 32 32 29 27 26 23 18 18 17 21 21 25 22 16
20 30 40 40 41 41 39 38 38 39 39 37 35 33 32 32 31 32 33 33 28 26 26 29 27 26 25 26 30 22 21 20
35 22 16 34 32 38 43 47 44 41 42 38 36 33 31 33 32 31 34 32 26 27 28 30 33 35 33 33 32 35 25 28
47 45 46 38 39 39 53 55 49 42 51 50 46 41 37 39 37 34 32 31 28 30 33 32 34 38 38 39 43 41 42 38
38 44 47 51 53 67 65 61 62 57 67 61 45 40 33 34 34 36 33 31 29 36 37 30 33 35 41 43 46 47 43 32
20 34 57 59 55 64 61 56 66 74 70 59 45 32 37 38 36 36 36 37 32 39 44 35 37 44 48 49 54 50 40 41
15 22 46 62 63 73 85 83 72 70 66 46 41 42 38 33 37 42 35 37 36 42 49 43 42 47 49 52 51 50 38 38
42 37 43 52 54 56 63 66 71 57 50 45 42 34 25 37 37 39 43 34 40 39 49 49 47 51 52 53 51 48 14 15
56 48 53 56 56 50 54 45 53 51 49 48 40 40 37 26 26 21 26 30 32 41 51 49 47 53 54 58 48 53 44 40
Wind_Direction_850mb
176 176 176 176 177 178 178 175 166 159 163 163 162 161 160 161 163 160 151 147 145 142 141 150 157 159 154 158 151 130 91 61
179 179 178 179 182 183 182 181 174 163 163 167 168 166 167 167 167 163 157 154 148 144 143 152 161 170 173 175 178 169 123 76
182 183 181 180 182 187 188 186 181 175 168 172 175 174 174 173 169 166 162 155 151 150 148 153 162 171 177 182 189 197 204 243
184 184 184 183 183 185 191 194 193 190 182 178 183 183 182 179 174 174 169 158 155 157 157 160 165 171 179 184 195 209 233 256
183 186 188 188 189 190 192 192 195 199 198 193 192 194 196 191 188 188 181 168 162 164 171 179 183 179 179 188 200 215 227 244
183 188 191 192 192 194 197 196 195 198 201 204 206 205 207 205 199 199 193 187 178 180 185 196 200 196 200 207 210 220 229 233
182 189 192 196 197 197 200 201 200 203 206 210 216 219 218 218 213 208 206 203 198 200 205 213 220 221 223 226 228 234 232 235
194 197 196 200 206 208 208 209 208 210 214 219 224 225 225 224 222 219 216 215 215 222 226 229 235 237 236 242 242 244 245 230
191 198 202 203 206 209 214 215 214 217 220 225 229 230 228 229 227 224 225 228 228 236 237 240 239 244 248 248 240 238 237 234
186 197 201 204 208 211 215 216 218 224 226 229 231 232 232 233 232 232 229 232 237 237 236 228 233 232 250 258 253 246 221 226
187 192 205 208 212 213 214 218 222 228 229 231 234 237 236 235 236 235 233 236 239 240 235 240 255 255 253 260 267 267 244 250
171 203 209 207 218 224 226 224 228 234 235 233 237 237 239 242 242 241 239 238 239 243 242 242 254 264 271 273 272 270 260 274
224 191 162 189 211 231 234 232 229 236 238 234 229 233 238 240 239 241 246 242 242 242 247 255 259 263 272 276 276 261 268 271
221 217 212 215 217 243 244 235 234 240 237 229 228 223 228 238 240 239 241 243 237 245 249 257 267 273 273 274 277 276 273 274
230 227 211 214 223 213 219 229 231 235 233 230 229 222 220 224 234 239 241 241 243 247 251 263 276 286 283 279 281 285 280 257
238 240 222 224 230 220 217 235 233 229 231 239 239 234 228 236 244 255 267 263 262 269 264 262 274 280 283 285 279 284 275 255
286 250 229 225 232 234 243 251 238 242 238 242 236 243 240 255 267 266 269 278 274 281 277 265 273 279 285 285 277 274 273 260
262 272 248 238 240 242 243 245 238 233 226 234 249 252 270 279 275 276 269 273 279 285 293 283 278 278 284 287 277 261 244 257
250 253 255 245 240 238 242 235 221 233 235 241 255 276 288 294 285 300 289 282 277 280 273 275 273 277 282 283 272 256 249 271